Location: Sungai Bunut
(2.6333°N, 113.7333°E)
Time: 10:24:41
(UTC+00:00)

A-11 Canister half - Pass Details

Date: 07 December 2023
Orbit: 1526 x 1682 km, 47.3° (Epoch: 04 March)

Event Time Altitude Azimuth Distance (km) Brightness Sun altitude
Exits shadow 18:11:04 17° 90° (E) 3,184 10.8 -55.8°
Drops below altitude 10° 18:13:29 10° 102° (ESE) 3,726 11.3 -55.3°
Sets 18:17:06 0° 113° (ESE) 4,694 12.1 -54.6°
